www.pogodaiklimat.ru

Погода и климат >> Архив погоды >> Канада >> Vancouver


АРХИВ ПОГОДЫ в Vancouver

Время (UTC), дата Ветер
(напр.,м/с)
 
Видим.   Явления Облачность Т
(С)
Тd
(С)
f
(%)
Тe
(С)
Тes
(С)
Комфортность P
(гПа)
Po
(гПа)
Тmin
(С)
Tmax
(С)
R
(мм)
R24
(мм)
S
(см)
09 14.06 З 3 30 км 8/8 300 м
[]
+12.5 +10.6 88 +11 +11 по сезону 1015.3 1014.8
12 14.06 З 4 45 км 9/5 300 м
[Cu Sc Ac As]
+13.1 +9.9 81 +12 +12 по сезону 1016.2 1015.7 +12.4 +17.8
15 14.06 ЮЗ 5 45 км 10/10 200 м
[]
+13.4 +10.0 80 +12 +12 по сезону 1017.3 1016.8
18 14.06 В 4 24 км в посл. час ливневой дождь 10/9 300 м
[Cu Sc Ac As]
+14.8 +11.0 78 +14 +14 по сезону 1018.6 1018.1 +12.4 +15.0 0.0
21 14.06 В 5 45 км 8/8 600 м
[]
+17.3 +10.5 64 +17 +18 по сезону 1018.5 1018.0
00 15.06 ЮЗ 3 45 км 8/6 1000 м
[Cu med, cong Ac As]
+19.3 +11.1 59 +21 +22 комфорт 1017.3 1016.8 +12.4 +20.1
03 15.06 З 2 30 км 6/6 1000 м
[]
+15.9 +9.3 65 +16 +16 по сезону 1016.6 1016.1
06 15.06 В 2 30 км 9/1 1000 м
[Sc Ac As]
+15.7 +10.5 71 +16 +16 тепло 1016.4 1015.9 +12.4 +20.1 0
09 15.06 ЮВ 2 30 км 10/0 2000 м
[]
+13.6 +10.5 82 +13 +13 по сезону 1015.6 1015.1
12 15.06 В 2 30 км 9/4 1000 м
[Sc Ac As]
+13.4 +10.7 84 +13 +13 тепло 1015.7 1015.2 +12.9 +20.1
15 15.06 В 2 30 км 10/10 300 м
[]
+14.2 +10.8 80 +14 +14 по сезону 1015.9 1015.4
18 15.06 З 5 45 км 8/3 300 м
[Cu hum Ac As]
+16.9 +13.2 79 +16 +19 по сезону 1015.6 1015.1 +12.7 +17.5
21 15.06 З 5 45 км 9/9 1000 м
[]
+18.2 +13.4 74 +18 +19 тепло 1014.8 1014.3
00 16.06 З 4 45 км 4/3 1000 м
[Cu Sc Ac As]
+19.3 +10.5 57 +20 +24 тепло 1013.0 1012.5 +12.7 +20.1
03 16.06 З 6 45 км 1/0 2000 м
[]
+17.3 +12.8 75 +16 +17 по сезону 1012.1 1011.6
06 16.06 З 9 45 км 10/1 1500 м
[Sc Ac As]
+15.7 +11.6 77 +14 +14 по сезону 1012.5 1012.0 +12.7 +20.1 61
09 16.06 С 3 30 км 9/9 1500 м
[]
+15.5 +11.8 79 +15 +15 тепло 1014.5 1014.0
12 16.06 СЗ 8 45 км ясно +14.0 +11.6 85 +12 +12 по сезону 1014.7 1014.2 +13.8 +20.1
15 16.06 СЗ 9 45 км 1/1 1000 м
[]
+15.7 +12.2 80 +14 +14 по сезону 1015.7 1015.2
18 16.06 З 7 45 км ясно +18.2 +13.3 73 +18 +21 тепло 1016.2 1015.7 +13.8 +18.5
21 16.06 СЗ 8 45 км ясно +20.4 +14.1 67 +22 +26 комфорт 1015.5 1015.0
00 17.06 З 7 45 км ясно +21.9 +14.7 64 +25 +28 комфорт 1014.0 1013.5 +13.8 +22.8
03 17.06 З 7 45 км ясно +20.7 +12.8 61 +23 +23 комфорт 1013.1 1012.6
06 17.06 СЗ 5 45 км ясно +18.4 +13.1 71 +19 +19 тепло 1013.7 1013.2 +13.8 +22.8 141
09 17.06 СЗ 2 45 км ясно +13.5 +10.7 83 +13 +13 по сезону 1014.7 1014.2
12 17.06 С 2 45 км 1/0
[Ac As Ci fib]
+14.3 +12.4 88 +14 +14 тепло 1015.1 1014.6 +12.6 +22.8
15 17.06 СЗ 3 45 км ясно +18.5 +14.8 79 +19 +23 тепло 1015.5 1015.0
18 17.06 СЗ 7 45 км 4/1 1000 м
[Cu hum Ac As Ci sp]
+20.2 +14.3 69 +22 +26 комфорт 1014.5 1014.0 +11.2 +20.6
21 17.06 З 6 45 км 8/8 1000 м
[]
+22.6 +14.7 61 +26 +28 жарко 1013.0 1012.5
00 18.06 СЗ 6 45 км 8/1 1000 м
[Cu hum Ac trans Cs]
+22.5 +14.9 62 +26 +28 жарко 1011.7 1011.2 +11.2 +24.2
03 18.06 СЗ 6 45 км 6/0
[]
+20.8 +14.0 65 +23 +24 комфорт 1010.1 1009.6
06 18.06 З 4 45 км 1/0
[Ci fib]
+17.6 +14.1 80 +17 +17 тепло 1010.5 1010.0 +11.2 +24.2 1
09 18.06 СЗ 2 45 км 4/0
[]
+15.4 +12.7 84 +16 +16 тепло 1012.2 1011.7
12 18.06 СЗ 3 45 км 1/0
[Ci fib]
+14.6 +13.5 93 +14 +14 тепло 1012.8 1012.3 +14.3 +24.2
15 18.06 С 2 45 км 1/0
[]
+19.9 +13.8 68 +23 +27 комфорт 1014.0 1013.5
18 18.06 З 2 45 км ясно +22.3 +14.4 61 +26 +40 жарко 1014.2 1013.7 +14.3 +22.7
21 18.06 З 3 45 км 1/1 600 м
[]
+25.5 +14.7 51 +28 +41 жарко 1013.0 1012.5
00 19.06 З 4 45 км 1/1 600 м
[Cu hum Ci fib]
+25.6 +15.7 54 +29 +34 душно 1012.0 1011.5 +14.3 +26.8
03 19.06 Ю 2 45 км 1/0
[]
+22.8 +14.2 58 +26 +27 жарко 1011.6 1011.2
06 19.06 ЮВ 7 30 км 3/0
[Ac trans]
+20.3 +10.7 54 +22 +22 комфорт 1013.2 1012.7 +14.3 +26.8 6
09 19.06 В 5 30 км ясно +16.6 +12.2 75 +16 +16 тепло 1014.7 1014.2
12 19.06 В 6 45 км 3/0
[Ac As]
+16.7 +11.4 71 +16 +16 тепло 1016.3 1015.8 +15.7 +26.8
15 19.06 В 6 45 км 3/0
[]
+19.3 +13.5 69 +20 +22 тепло 1017.6 1017.1
18 19.06 ЮВ 5 45 км ясно +22.3 +13.5 57 +25 +34 комфорт 1017.6 1017.1 +15.7 +22.3
21 19.06 ЮЗ 5 45 км ясно +21.4 +15.6 70 +25 +35 комфорт 1016.8 1016.3
00 20.06 З 3 45 км 1/0
[Ac trans Cs]
+24.0 +17.3 66 +28 +35 душно 1015.2 1014.7 +15.7 +24.2
03 20.06 ЮВ 3 30 км 1/0
[]
+23.1 +14.3 58 +27 +27 душно 1014.5 1014.0
06 20.06 В 5 30 км 3/0
[Ac As Ci fib]
+17.7 +13.2 75 +17 +17 тепло 1015.5 1015.0 +15.7 +24.2
09 20.06 ЮВ 3 30 км 9/0 2000 м
[]
+17.6 +13.8 78 +18 +18 тепло 1015.4 1014.9
12 20.06 В 3 30 км осадки на расстоянии 5/3 1500 м
[Sc Ac As Ci fib]
+16.0 +13.2 83 +16 +16 тепло 1015.1 1014.6 +16.0 +24.2
15 20.06 ЮЗ 1 45 км 9/0
[]
+17.8 +14.1 79 +19 +21 тепло 1015.3 1014.8
18 20.06 З 2 45 км 9/0
[Ac cast Ci fib]
+20.5 +15.3 72 +24 +30 комфорт 1015.0 1014.5 +15.5 +20.8
21 20.06 З 3 45 км 9/9 1500 м
[]
+24.4 +13.8 52 +27 +28 жарко 1013.8 1013.3
00 21.06 З 3 45 км 9/1 1500 м
[Cu hum Ci fib]
+25.1 +11.1 41 +26 +32 жарко 1012.0 1011.5 +15.5 +25.6
03 21.06 ЮЗ 2 30 км 9/0
[]
+23.6 +16.1 63 +27 +27 жарко 1011.7 1011.2
06 21.06 ЮВ 3 30 км 6/0
[Ac As Ci fib]
+20.8 +12.0 57 +23 +23 комфорт 1012.0 1011.5 +15.5 +25.6

 

Местоположение метеостанции Vancouver (Канада): широта 49.20 долгота -123.10 высота над уровнем моря 4 м.

В архиве по умолчанию представлена погода в Vancouver за последнюю неделю. Архивные данные за месяц целиком и за предыдущие месяцы, начиная с января 2011 года, Вы можете получить, выбрав интересующий диапазон дат из раскрывающегося списка и нажав кнопку "Ввод!".


*Определитесь, кто Вы:
робот инопланетянин человек

Внимание! Время в таблицах - всемирное. Для получения местного времени необходимо прибавить поправку, которая в Vancouver равна -8 ч.

Смотрите также архив погоды в соседних городах и на ближайших метеорологических станциях:

Погода в Richmond (Канада) (3 км)
Погода в Vancouver Hillcrest (Канада) (3 км)
Погода в Vancouver Sea Island Ccg (Канада) (7 км)
Погода в Vancouver (aut) (Канада) (11 км)
Погода в West Vancouver Camp (Канада) (14 км)
Погода в Point Atkinson (Канада) (17 км)
Погода в Sand Heads (Канада) (18 км)
Погода в Cypress Bowl South (Канада) (21 км)
Погода в Cypress Bowl North (Канада) (23 км)
Погода в Howe Sound (Канада) (32 км)

Пояснения к столбцам:

Ветер - указаны скорость ветра в м/с - средняя за 10 мин, порывы в срок и между сроками (в фигурных скобках) и направление, откуда дует ветер: С - северный, СВ - северо-восточный, В - восточный, ЮВ - юго-восточный, Ю - южный, ЮЗ - юго-западный, З - западный, СЗ - северо-западный.
Видимость - горизонтальная дальность видимости в метрах или километрах. При видимости от 1 до 10 км при отсутствии осадков обычно наблюдается дымка, при ухудшении видимости до 1 км и менее - туман. В сухую погоду видимость может ухудшаться дымом, пылью или мглою.
Явления - указаны атмосферные явления, наблюдавшиеся в срок или в последний час перед сроком; фигурными скобками обозначены явления, наблюдавшиеся между сроками (за 1-3 часа до срока); квадратными скобками обозначены град или гололедные отложения с указанием их диаметра в мм.
Облачность - указаны через наклонную черту общая и нижняя облачность в баллах и высота нижней границы облаков в метрах; квадратными скобками обозначены формы облаков: Ci - перистые, Cs - перисто-слоистые, Cc - перисто-кучевые, Ac - высококучевые, As - высокослоистые, Sc - слоисто-кучевые, Ns - слоисто-дождевые, Cu - кучевые, Cb - кучево-дождевые. Подробнее классификацию облаков см. в Атласе облаков (PDF).
T - Температура воздуха - температура, измеренная на высоте 2 м над землей.
Td - Температура точки росы - температура, при понижении до которой содержащийся в воздухе водяной пар достигнет насыщения.
f - Относительная влажность воздуха - влажноcть воздуха, измеренная на высоте 2 м над землей.
Te - Эффективная температура - температура, которую ощущает одетый по сезону человек в тени. Характеристика душности погоды. При расчете учитывается влияние влажности воздуха и скорости ветра на теплоощущения человека.
Tes - Эффективная температура на солнце - температура, которую ощущает человек, с поправкой на солнечный нагрев. Характеристика знойности погоды. Зависит от высоты солнца над горизонтом, облачности и скорости ветра. Ночью, в пасмурную погоду, а также при ветре 12 м/с и более поправка равна нулю.
P - Атмосферное давление - приведенное к уровню моря атмосферное давление.
Po - Атмосферное давление - измеренное на уровне метеостанции атмосферное давление.
Tmin - Минимальная температура - минимум температуры воздуха на высоте 2 м над землей.
Tmax - Максимальная температура - максимум температуры воздуха на высоте 2 м над землей.
R - Количество осадков - Количество выпавших осадков за период времени, мм. При наведении курсора мыши на число - период времени, за который выпало указанное количество осадков.
R24 - Количество осадков - Количество выпавших осадков за 24 часа, мм.
S - Снежный покров - Высота снежного покрова, см. При наведении курсора мыши на число - состояние снежного покрова и степень покрытия местности в баллах.